EW2918 Weather Reports


Display with metric or nautical units.
time (UTC)temp
F
wind
direction
speed
MPH
gust
MPH
rain 1hr
in
rain 24hr
in
rain mn
in
humidity
%
barometer
mb
20260509001806 65 202 0.0 0.0 0.00 0.00 0.00 69 980.7
20260509001307 65 202 0.0 0.0 0.00 0.00 0.00 63 980.6
20260509000806 66 202 0.0 0.0 0.00 0.00 0.00 71 980.6
20260509000311 66 202 0.0 0.0 0.00 0.00 0.00 66 980.5
20260508234306 67 202 0.0 1.0 0.00 0.00 0.00 58 980.2
20260508233808 67 202 0.0 1.0 0.00 0.00 0.00 58 980.3
20260508233308 67 202 0.0 1.0 0.00 0.00 0.00 57 980.3
20260508231808 67 289 0.0 0.0 0.00 0.00 0.00 58 980.5
20260508230807 68 293 0.0 1.0 0.00 0.00 0.00 57 980.3
20260508230316 68 210 0.0 1.0 0.00 0.00 0.00 56 980.3
20260508224308 68 213 0.0 1.0 0.00 0.00 0.00 55 980.3
20260508223808 68 252 0.0 0.0 0.00 0.00 0.00 61 980.3
20260508223308 68 252 0.0 1.0 0.00 0.00 0.00 57 980.4
20260508221808 69 198 0.0 0.0 0.00 0.00 0.00 58 980.4
20260508221310 69 198 0.0 1.0 0.00 0.00 0.00 54 980.3
20260508220807 69 198 0.0 2.0 0.00 0.00 0.00 53 980.3
20260508220311 69 199 0.0 2.0 0.00 0.00 0.00 53 980.2
20260508214809 69 217 0.0 0.0 0.00 0.00 0.00 53 980.1
20260508214306 69 356 0.0 2.0 0.00 0.00 0.00 51 980.2
20260508213808 69 356 0.0 2.0 0.00 0.00 0.00 52 980.3
20260508213306 69 203 0.0 2.0 0.00 0.00 0.00 51 980.3
20260508211808 69 191 0.0 1.0 0.00 0.00 0.00 51 980.4
20260508210807 69 195 0.0 1.0 0.00 0.00 0.00 51 980.3
20260508210313 70 217 0.0 2.0 0.00 0.00 0.00 51 980.1
20260508204808 69 182 0.0 2.0 0.00 0.00 0.00 50 980.3
20260508204307 69 116 0.0 2.0 0.00 0.00 0.00 48 980.3
20260508203806 69 191 0.0 2.0 0.00 0.00 0.00 52 980.4
20260508203307 69 189 0.0 2.0 0.00 0.00 0.00 51 980.3
20260508201307 70 264 0.0 0.0 0.00 0.00 0.00 49 980.6
20260508200311 71 264 0.0 1.0 0.00 0.00 0.00 48 980.8
20260508194806 71 225 0.0 2.0 0.00 0.00 0.00 48 980.9
20260508194306 71 88 0.0 2.0 0.00 0.00 0.00 47 981.0
20260508193809 71 182 0.0 2.0 0.00 0.00 0.00 48 981.2
20260508191807 71 349 0.0 0.0 0.00 0.00 0.00 49 981.4
20260508191306 70 349 0.0 0.0 0.00 0.00 0.00 51 981.4
20260508190807 70 349 0.0 1.0 0.00 0.00 0.00 49 981.4
20260508190307 70 349 0.0 2.0 0.00 0.00 0.00 49 981.5
20260508184806 70 356 0.0 3.0 0.00 0.00 0.00 48 981.7
20260508183807 70 192 0.0 2.0 0.00 0.00 0.00 47 982.0
20260508183308 69 15 0.0 2.0 0.00 0.00 0.00 49 982.0
20260508181807 71 200 0.0 2.0 0.00 0.00 0.00 47 982.2
20260508181307 71 190 0.0 3.0 0.00 0.00 0.00 48 982.3
20260508180806 70 190 0.0 3.0 0.00 0.00 0.00 48 982.5
20260508174808 71 204 0.0 2.0 0.00 0.00 0.00 46 982.5
20260508173809 70 256 0.0 1.0 0.00 0.00 0.00 47 982.7
20260508173309 70 201 0.0 1.0 0.00 0.00 0.00 47 982.7
20260508171307 70 352 0.0 3.0 0.00 0.00 0.00 46 983.0
20260508170807 71 173 1.0 3.0 0.00 0.00 0.00 48 983.1
20260508170307 71 196 0.0 2.0 0.00 0.00 0.00 46 983.2
20260508164806 69 240 0.0 1.0 0.00 0.00 0.00 52 983.4
20260508164307 69 234 0.0 2.0 0.00 0.00 0.00 50 983.4
20260508163807 69 28 0.0 3.0 0.00 0.00 0.00 48 983.5
20260508163307 69 342 0.0 3.0 0.00 0.00 0.00 49 983.6
20260508161307 68 27 1.0 3.0 0.00 0.00 0.00 52 983.7
20260508160809 67 212 0.0 2.0 0.00 0.00 0.00 53 983.8
20260508160305 68 219 1.0 2.0 0.00 0.00 0.00 48 983.8
20260508154807 68 344 0.0 3.0 0.00 0.00 0.00 52 984.1
20260508154306 68 344 0.0 3.0 0.00 0.00 0.00 47 984.2
20260508153807 68 192 0.0 3.0 0.00 0.00 0.00 49 984.2
20260508151307 67 224 0.0 1.0 0.00 0.00 0.00 57 984.3
20260508150807 66 224 0.0 3.0 0.00 0.00 0.00 59 984.3
20260508150310 66 212 0.0 3.0 0.00 0.00 0.00 53 984.3
20260508144806 66 231 0.0 1.0 0.00 0.00 0.00 57 984.2
20260508143807 65 225 0.0 0.0 0.00 0.00 0.00 56 984.2
20260508143307 64 225 0.0 0.0 0.00 0.00 0.00 60 984.2
20260508141807 63 225 0.0 0.0 0.00 0.00 0.00 66 984.4
20260508141307 62 225 0.0 1.0 0.00 0.00 0.00 64 984.5
20260508134806 60 336 0.0 0.0 0.00 0.00 0.00 71 984.6
20260508134307 59 336 0.0 0.0 0.00 0.00 0.00 73 984.7
20260508133806 59 336 0.0 0.0 0.00 0.00 0.00 76 984.7
20260508133306 59 336 0.0 0.0 0.00 0.00 0.00 69 984.7
20260508130806 56 216 0.0 0.0 0.00 0.00 0.00 85 984.4
20260508130307 56 216 0.0 0.0 0.00 0.00 0.00 82 984.3
20260508124806 55 216 0.0 0.0 0.00 0.00 0.00 88 984.2
20260508123807 54 216 0.0 0.0 0.00 0.00 0.00 89 984.2
20260508121806 53 216 0.0 0.0 0.00 0.00 0.00 92 984.0
20260508121308 53 216 0.0 0.0 0.00 0.00 0.00 94 983.9
20260508120810 52 216 0.0 0.0 0.00 0.00 0.00 94 983.9
20260508120311 52 216 0.0 0.0 0.00 0.00 0.00 95 983.8
20260508114306 51 216 0.0 0.0 0.00 0.00 0.00 95 983.6
20260508113806 51 216 0.0 0.0 0.00 0.00 0.00 94 983.4
20260508113306 51 216 0.0 0.0 0.00 0.00 0.00 94 983.4
20260508111809 51 216 0.0 0.0 0.00 0.00 0.00 95 983.0
20260508111308 51 216 0.0 0.0 0.00 0.00 0.00 96 982.9
20260508110807 50 216 0.0 0.0 0.00 0.00 0.00 96 982.9
20260508104807 51 216 0.0 0.0 0.00 0.00 0.00 96 982.5
20260508104306 51 216 0.0 0.0 0.00 0.00 0.00 95 982.4
20260508103807 51 216 0.0 0.0 0.00 0.00 0.00 95 982.5
20260508103306 51 216 0.0 0.0 0.00 0.00 0.00 95 982.4
20260508101808 51 216 0.0 0.0 0.00 0.00 0.00 95 982.1
20260508101306 51 216 0.0 0.0 0.00 0.00 0.00 94 982.0
20260508100807 51 216 0.0 0.0 0.00 0.00 0.00 93 982.0
20260508094807 51 216 0.0 0.0 0.00 0.00 0.00 93 981.6
20260508094307 51 216 0.0 0.0 0.00 0.00 0.00 92 981.5
20260508093810 51 216 0.0 0.0 0.00 0.00 0.00 92 981.6
20260508091307 52 216 0.0 0.0 0.00 0.00 0.00 90 981.5
20260508090314 52 216 0.0 0.0 0.00 0.00 0.00 91 981.3
20260508083807 52 216 0.0 0.0 0.00 0.00 0.00 92 981.4
20260508083307 52 216 0.0 0.0 0.00 0.00 0.00 92 981.3
20260508081306 52 216 0.0 0.0 0.00 0.00 0.00 93 981.4
20260508080807 52 216 0.0 0.0 0.00 0.00 0.00 92 981.3
20260508080315 52 216 0.0 0.0 0.00 0.00 0.00 92 981.3
20260508074809 52 216 0.0 0.0 0.00 0.00 0.00 91 981.3
20260508074306 52 216 0.0 0.0 0.00 0.00 0.00 90 981.4
20260508073807 52 216 0.0 0.0 0.00 0.00 0.00 89 981.3
20260508071808 52 216 0.0 0.0 0.00 0.00 0.00 90 981.2
20260508071306 52 216 0.0 0.0 0.00 0.00 0.00 90 981.3
20260508070311 52 216 0.0 0.0 0.00 0.00 0.00 90 981.0
20260508064810 53 216 0.0 0.0 0.00 0.00 0.00 89 980.8
20260508064306 53 216 0.0 0.0 0.00 0.00 0.00 88 980.9
20260508063809 53 216 0.0 0.0 0.00 0.00 0.00 88 980.9
20260508063309 53 216 0.0 0.0 0.00 0.00 0.00 86 980.9
20260508061808 54 216 0.0 0.0 0.00 0.00 0.00 86 980.8
20260508061307 54 216 0.0 0.0 0.00 0.00 0.00 85 980.8
20260508060807 54 216 0.0 0.0 0.00 0.00 0.00 85 980.8
20260508060309 54 216 0.0 0.0 0.00 0.00 0.00 83 980.9
20260508054807 55 216 0.0 0.0 0.00 0.00 0.00 82 981.0
20260508054307 55 216 0.0 0.0 0.00 0.00 0.00 80 981.0
20260508053806 56 216 0.0 0.0 0.00 0.00 0.00 79 981.1
20260508053308 56 216 0.0 0.0 0.00 0.00 0.00 80 981.0
20260508051306 56 223 0.0 0.0 0.00 0.00 0.00 81 980.9
20260508050806 56 216 0.0 0.0 0.00 0.00 0.00 81 981.0
20260508050308 56 216 0.0 0.0 0.00 0.00 0.00 81 980.8
20260508044807 56 216 0.0 0.0 0.00 0.00 0.00 82 980.6
20260508044306 56 216 0.0 0.0 0.00 0.00 0.00 81 980.6
20260508043806 56 216 0.0 0.0 0.00 0.00 0.00 81 980.6
20260508043307 56 216 0.0 1.0 0.00 0.00 0.00 79 980.6
20260508041807 56 106 0.0 0.0 0.00 0.00 0.00 83 980.4
20260508041307 56 106 0.0 0.0 0.00 0.00 0.00 84 980.3
20260508041146 56 106 0.0 0.0 0.00 0.00 0.00 81 980.2
20260508040308 56 106 0.0 0.0 0.00 0.00 0.00 83 980.3
20260508034806 57 106 0.0 0.0 0.00 0.00 0.00 77 980.6
20260508034307 57 106 0.0 0.0 0.00 0.00 0.00 77 980.5
20260508033807 57 106 0.0 0.0 0.00 0.00 0.00 78 980.5
20260508033308 58 106 0.0 0.0 0.00 0.00 0.00 78 980.4
20260508031807 58 106 0.0 0.0 0.00 0.00 0.00 76 980.4
20260508031309 58 106 0.0 0.0 0.00 0.00 0.00 78 980.4
20260508030313 58 106 0.0 0.0 0.00 0.00 0.00 77 980.2
20260508024808 59 106 0.0 1.0 0.00 0.00 0.00 76 980.2
20260508023806 59 198 0.0 0.0 0.00 0.00 0.00 76 980.0
20260508023307 59 198 0.0 0.0 0.00 0.00 0.00 78 979.9
20260508021806 60 198 0.0 1.0 0.00 0.00 0.00 75 979.6
20260508021306 60 198 0.0 1.0 0.00 0.00 0.00 76 979.5
20260508020808 60 352 0.0 1.0 0.00 0.00 0.00 74 979.6
20260508020310 60 352 0.0 1.0 0.00 0.00 0.00 73 979.4
20260508014806 60 200 0.0 2.0 0.00 0.00 0.00 76 979.2
20260508013807 61 353 0.0 3.0 0.00 0.00 0.00 77 978.9
20260508013307 61 26 1.0 3.0 0.00 0.00 0.00 73 978.8
20260508011806 61 9 0.0 2.0 0.00 0.00 0.00 75 978.5
20260508011306 62 214 0.0 2.0 0.00 0.00 0.00 78 978.4
20260508010807 62 33 0.0 3.0 0.00 0.00 0.00 75 978.3
20260508004807 62 24 0.0 2.0 0.00 0.00 0.00 75 978.1
20260508004307 63 225 0.0 3.0 0.00 0.00 0.00 72 978.0
20260508003311 63 12 1.0 3.0 0.00 0.00 0.00 73 977.7